Home   Weather   Lisbon   Past weeks

Flag for Portugal Past Weather in Lisbon, Portugal — Yesterday and Last 2 Weeks

Now
68 °F

Passing clouds.


Feels Like: 68 °F
Forecast: 65 / 85 °F
Wind: 13 mph from North

Location: Lisbon Portela Airport

Current Time: Sep 26, 2016 at 8:07:57 PM

Latest Report: Sep 26, 2016 at 7:30 PM


Visibility: N/A

Pressure: 30.18 "Hg

Humidity: 40%

Dew Point: 43 °F

Location of LisbonLocation

Past Weather in Lisbon — Graph

°F

Lisbon Temperature Yesterday

Maximum temperature yesterday: 77 °F (at 2:30 PM)
Minimum temperature yesterday: 63 °F (at 6:00 AM)
Average temperature yesterday: 68 °F

High & Low Weather Summary for the Past Weeks

 TemperatureHumidityPressure
High86 °F (Sep 17, 3:30 PM)100% (Sep 13, 4:30 AM)30.24 "Hg (Sep 13, 4:30 AM)
Low57 °F (Sep 15, 7:00 AM)20% (Sep 19, 4:00 PM)29.86 "Hg (Sep 13, 3:00 AM)
Average68 °F68%30.08 "Hg
* Reported Sep 11 7:00 PM — Sep 26 7:00 PM, Lisbon, Weather by CustomWeather, © 2016

Note: Actual official high and low records may vary slightly from our data, if they occured in-between our weather recording intervals... More about our weather records

Advertising

Lisbon Weather History for the Previous 24 Hours

Scroll right to see more
 ConditionsComfort  
Time TempWeatherWind HumidityBarometerVisibility
7:00 PM
Mon, Sep 26
68 °FPassing clouds.16 mph35%30.15 "HgN/A
6:30 PM70 °FSunny.24 mph33%30.15 "Hg10 mi
6:00 PM72 °FSunny.21 mph31%30.15 "Hg10 mi
5:30 PM73 °FSunny.23 mph31%30.15 "Hg10 mi
5:00 PM75 °FSunny.24 mph27%30.15 "Hg10 mi
4:30 PM75 °FSunny.17 mph29%30.15 "Hg10 mi
3:30 PM73 °FSunny.18 mph31%30.15 "Hg10 mi
3:00 PM73 °FSunny.18 mph38%30.15 "Hg10 mi
2:30 PM73 °FSunny.17 mph41%30.15 "Hg10 mi
2:00 PM75 °FPassing clouds.17 mph39%30.15 "HgN/A
1:30 PM73 °FPassing clouds.18 mph44%30.15 "HgN/A
1:00 PM75 °FSunny.15 mph36%30.15 "Hg10 mi
12:30 PM73 °FPassing clouds.15 mph41%30.15 "HgN/A
12:00 PM73 °FSunny.13 mph44%30.18 "Hg10 mi
11:30 AM70 °FPassing clouds.12 mph50%30.18 "HgN/A
11:00 AM68 °FSunny.17 mph56%30.18 "Hg10 mi
10:30 AM68 °FPassing clouds.12 mph60%30.15 "HgN/A
10:00 AM66 °FSunny.15 mph64%30.15 "Hg10 mi
9:30 AM63 °FSunny.12 mph77%30.15 "Hg10 mi
9:00 AM61 °FPassing clouds.15 mph83%30.15 "HgN/A
8:30 AM61 °FSunny.15 mph83%30.15 "Hg10 mi
8:00 AM59 °FSunny.14 mph88%30.12 "Hg10 mi
7:30 AM61 °FPassing clouds.16 mph83%30.12 "HgN/A
7:00 AM59 °FClear.13 mph88%30.12 "Hg10 mi
6:30 AM59 °FClear.15 mph88%30.12 "Hg10 mi
6:00 AM59 °FClear.15 mph88%30.09 "Hg10 mi
5:30 AM59 °FClear.14 mph88%30.12 "Hg10 mi
5:00 AM59 °FClear.14 mph82%30.12 "Hg10 mi
4:30 AM59 °FClear.14 mph82%30.12 "Hg10 mi
4:00 AM61 °FClear.16 mph77%30.12 "Hg10 mi
3:30 AM61 °FPassing clouds.17 mph77%30.15 "HgN/A
3:00 AM61 °FPassing clouds.13 mph77%30.15 "HgN/A
2:30 AM61 °FPassing clouds.13 mph77%30.15 "HgN/A
2:00 AM61 °FPassing clouds.12 mph77%30.15 "HgN/A
1:30 AM61 °FPassing clouds.13 mph77%30.15 "HgN/A
1:00 AM61 °FClear.13 mph77%30.15 "Hg10 mi
12:30 AM61 °FClear.13 mph72%30.15 "Hg10 mi
12:00 AM61 °FClear.18 mph72%30.15 "Hg10 mi
11:30 PM
Sun, Sep 25
63 °FClear.10 mph68%30.15 "Hg10 mi
11:00 PM63 °FClear.12 mph73%30.15 "Hg10 mi
10:30 PM63 °FPassing clouds.12 mph68%30.15 "HgN/A
10:00 PM63 °FClear.15 mph68%30.15 "Hg10 mi
9:30 PM63 °FPassing clouds.14 mph68%30.15 "HgN/A
9:00 PM64 °FClear.14 mph64%30.15 "Hg10 mi
8:30 PM64 °FPassing clouds.14 mph68%30.15 "HgN/A
8:00 PM64 °FClear.15 mph64%30.15 "Hg10 mi
Weather by CustomWeather, © 2016

See weather overviewHow to use our weather pages